Time,TemperatureF,DewpointF,PressureIn,WindDirection,WindDirectionDegrees,WindSpeedMPH,WindSpeedGustMPH,Humidity,HourlyPrecipIn,Conditions,Clouds,dailyrainin,SoftwareType,DateUTC
2013-03-02 00:00:00,30.9,30.1,29.53,NW,321,3.0,22.0,97,0.00,,,0.00,Wunderground v.1.15,2013-03-02 04:00:00,
2013-03-02 00:10:00,30.9,30.1,29.53,NNW,345,3.0,3.0,97,0.00,,,0.00,Wunderground v.1.15,2013-03-02 04:10:00,
2013-03-02 00:20:00,30.9,30.1,29.53,NW,321,2.0,22.0,97,0.00,,,0.00,Wunderground v.1.15,2013-03-02 04:20:00,
2013-03-02 00:30:00,30.9,30.1,29.53,NNW,333,3.0,3.0,97,0.00,,,0.00,Wunderground v.1.15,2013-03-02 04:30:00,
2013-03-02 00:40:00,31.0,30.2,29.53,North,351,3.0,3.0,97,0.00,,,0.00,Wunderground v.1.15,2013-03-02 04:40:00,
2013-03-02 00:50:00,31.0,30.2,29.53,WNW,297,2.0,22.0,97,0.00,,,0.00,Wunderground v.1.15,2013-03-02 04:50:00,
2013-03-02 01:00:00,31.1,30.3,29.53,NW,323,2.0,22.0,97,0.00,,,0.00,Wunderground v.1.15,2013-03-02 05:00:00,
2013-03-02 01:10:00,31.3,30.5,29.53,NNW,346,2.0,22.0,97,0.00,,,0.00,Wunderground v.1.15,2013-03-02 05:10:00,
2013-03-02 01:20:00,31.3,30.5,29.53,NW,326,3.0,22.0,97,0.00,,,0.00,Wunderground v.1.15,2013-03-02 05:20:00,
2013-03-02 01:30:00,31.3,30.5,29.53,North,349,2.0,22.0,97,0.00,,,0.00,Wunderground v.1.15,2013-03-02 05:30:00,
2013-03-02 01:40:00,31.4,30.6,29.53,North,354,3.0,3.0,97,0.00,,,0.00,Wunderground v.1.15,2013-03-02 05:40:00,
2013-03-02 01:50:00,31.4,30.6,29.53,NNW,343,3.0,22.0,97,0.00,,,0.00,Wunderground v.1.15,2013-03-02 05:50:00,
2013-03-02 02:00:00,31.3,30.5,29.53,NW,326,2.0,22.0,97,0.00,,,0.00,Wunderground v.1.15,2013-03-02 06:00:00,
2013-03-02 02:10:00,31.3,30.5,29.53,NW,318,2.0,22.0,97,0.00,,,0.00,Wunderground v.1.15,2013-03-02 06:10:00,
2013-03-02 02:20:00,31.3,30.5,29.52,NNW,327,2.0,2.0,97,0.00,,,0.00,Wunderground v.1.15,2013-03-02 06:20:00,
2013-03-02 02:30:00,31.3,30.5,29.52,NW,309,2.0,22.0,97,0.00,,,0.00,Wunderground v.1.15,2013-03-02 06:30:00,
2013-03-02 02:40:00,31.4,30.6,29.52,NNW,338,2.0,2.0,97,0.00,,,0.00,Wunderground v.1.15,2013-03-02 06:40:00,
2013-03-02 02:50:00,31.4,30.6,29.52,NNE,15,2.0,22.0,97,0.00,,,0.00,Wunderground v.1.15,2013-03-02 06:50:00,
2013-03-02 03:00:00,31.4,30.6,29.52,NNW,341,2.0,22.0,97,0.00,,,0.00,Wunderground v.1.15,2013-03-02 07:00:00,
2013-03-02 03:10:00,31.5,30.7,29.52,NW,309,2.0,2.0,97,0.00,,,0.00,Wunderground v.1.15,2013-03-02 07:10:00,
2013-03-02 03:20:00,31.6,30.8,29.52,NW,321,2.0,2.0,97,0.00,,,0.00,Wunderground v.1.15,2013-03-02 07:20:00,
2013-03-02 03:30:00,31.5,30.7,29.52,WNW,297,3.0,3.0,97,0.00,,,0.00,Wunderground v.1.15,2013-03-02 07:30:00,
2013-03-02 03:40:00,31.6,30.8,29.52,WNW,297,3.0,3.0,97,0.00,,,0.00,Wunderground v.1.15,2013-03-02 07:40:00,
2013-03-02 03:50:00,31.6,30.8,29.52,NW,321,2.0,22.0,97,0.00,,,0.00,Wunderground v.1.15,2013-03-02 07:50:00,
2013-03-02 04:00:00,31.6,30.8,29.52,NW,323,2.0,2.0,97,0.00,,,0.00,Wunderground v.1.15,2013-03-02 08:00:00,
2013-03-02 04:10:00,31.6,30.8,29.52,NW,326,3.0,22.0,97,0.00,,,0.00,Wunderground v.1.15,2013-03-02 08:10:00,
2013-03-02 04:20:00,31.6,30.8,29.52,NNW,333,3.0,3.0,97,0.00,,,0.00,Wunderground v.1.15,2013-03-02 08:20:00,
2013-03-02 04:30:00,31.7,30.9,29.51,NNE,13,3.0,22.0,97,0.00,,,0.00,Wunderground v.1.15,2013-03-02 08:30:00,
2013-03-02 04:40:00,31.8,31.3,29.51,NW,318,3.0,22.0,98,0.00,,,0.00,Wunderground v.1.15,2013-03-02 08:40:00,
2013-03-02 04:50:00,31.9,31.4,29.51,NW,321,2.0,22.0,98,0.00,,,0.00,Wunderground v.1.15,2013-03-02 08:50:00,
2013-03-02 05:00:00,32.0,31.5,29.52,NNE,25,2.0,2.0,98,0.00,,,0.00,Wunderground v.1.15,2013-03-02 09:00:00,
2013-03-02 05:10:00,32.0,31.5,29.52,NW,321,2.0,22.0,98,0.00,,,0.00,Wunderground v.1.15,2013-03-02 09:10:00,
2013-03-02 05:20:00,32.1,31.6,29.51,North,357,3.0,3.0,98,0.00,,,0.00,Wunderground v.1.15,2013-03-02 09:20:00,
2013-03-02 05:30:00,32.1,31.6,29.51,NW,321,2.0,22.0,98,0.00,,,0.00,Wunderground v.1.15,2013-03-02 09:30:00,
2013-03-02 05:40:00,32.1,31.6,29.51,WNW,285,2.0,2.0,98,0.00,,,0.00,Wunderground v.1.15,2013-03-02 09:40:00,
2013-03-02 05:50:00,32.2,31.7,29.51,WNW,297,1.0,22.0,98,0.00,,,0.00,Wunderground v.1.15,2013-03-02 09:50:00,
2013-03-02 06:00:00,32.2,31.7,29.51,NW,311,1.0,22.0,98,0.00,,,0.00,Wunderground v.1.15,2013-03-02 10:00:00,
2013-03-02 06:10:00,32.2,31.7,29.51,WNW,284,1.0,1.0,98,0.00,,,0.00,Wunderground v.1.15,2013-03-02 10:10:00,
2013-03-02 06:20:00,32.2,31.7,29.52,NNE,19,0.0,22.0,98,0.00,,,0.00,Wunderground v.1.15,2013-03-02 10:20:00,
2013-03-02 06:30:00,32.2,31.7,29.52,WNW,290,1.0,1.0,98,0.00,,,0.00,Wunderground v.1.15,2013-03-02 10:30:00,
2013-03-02 06:40:00,32.2,31.7,29.52,NW,326,0.0,22.0,98,0.00,,,0.00,Wunderground v.1.15,2013-03-02 10:40:00,
2013-03-02 06:50:00,32.2,31.7,29.52,WNW,300,0.0,22.0,98,0.00,,,0.00,Wunderground v.1.15,2013-03-02 10:50:00,
2013-03-02 07:00:00,32.2,31.7,29.52,WNW,300,0.0,22.0,98,0.00,,,0.00,Wunderground v.1.15,2013-03-02 11:00:00,
2013-03-02 07:10:00,32.3,31.8,29.52,NW,326,0.0,22.0,98,0.00,,,0.00,Wunderground v.1.15,2013-03-02 11:10:00,
2013-03-02 07:20:00,32.3,31.8,29.52,NNW,328,0.0,22.0,98,0.00,,,0.00,Wunderground v.1.15,2013-03-02 11:20:00,
2013-03-02 07:30:00,32.4,31.9,29.52,North,357,1.0,1.0,98,0.00,,,0.00,Wunderground v.1.15,2013-03-02 11:30:00,
2013-03-02 07:40:00,32.4,31.9,29.52,WNW,300,1.0,1.0,98,0.00,,,0.00,Wunderground v.1.15,2013-03-02 11:40:00,
2013-03-02 07:50:00,32.4,31.6,29.52,WNW,302,1.0,1.0,97,0.00,,,0.00,Wunderground v.1.15,2013-03-02 11:50:00,
2013-03-02 08:00:00,32.5,32.0,29.52,NW,307,1.0,1.0,98,0.00,,,0.00,Wunderground v.1.15,2013-03-02 12:00:00,
2013-03-02 08:10:00,32.5,31.7,29.52,NNW,335,1.0,22.0,97,0.00,,,0.00,Wunderground v.1.15,2013-03-02 12:10:00,
2013-03-02 08:20:00,32.5,31.7,29.52,NNW,330,2.0,22.0,97,0.00,,,0.00,Wunderground v.1.15,2013-03-02 12:20:00,
2013-03-02 08:30:00,32.6,31.8,29.52,NW,318,2.0,2.0,97,0.00,,,0.00,Wunderground v.1.15,2013-03-02 12:30:00,
2013-03-02 08:40:00,32.7,31.9,29.52,NE,43,1.0,1.0,97,0.00,,,0.00,Wunderground v.1.15,2013-03-02 12:40:00,
2013-03-02 08:50:00,32.8,32.0,29.52,NNE,23,1.0,1.0,97,0.00,,,0.00,Wunderground v.1.15,2013-03-02 12:50:00,
2013-03-02 09:00:00,32.9,32.1,29.52,North,353,1.0,22.0,97,0.00,,,0.01,Wunderground v.1.15,2013-03-02 13:00:00,
2013-03-02 09:10:00,33.1,32.3,29.51,NW,310,2.0,22.0,97,0.06,,,0.02,Wunderground v.1.15,2013-03-02 13:10:00,
2013-03-02 09:20:00,33.2,32.4,29.51,WNW,298,2.0,2.0,97,0.08,,,0.02,Wunderground v.1.15,2013-03-02 13:20:00,
2013-03-02 09:30:00,33.4,32.6,29.51,NW,311,2.0,2.0,97,0.07,,,0.03,Wunderground v.1.15,2013-03-02 13:30:00,
2013-03-02 09:40:00,33.6,32.8,29.51,NW,314,2.0,2.0,97,0.06,,,0.04,Wunderground v.1.15,2013-03-02 13:40:00,
2013-03-02 09:50:00,33.6,32.8,29.51,NW,319,2.0,2.0,97,0.06,,,0.05,Wunderground v.1.15,2013-03-02 13:50:00,
2013-03-02 10:00:00,33.6,32.8,29.51,North,11,2.0,2.0,97,0.06,,,0.06,Wunderground v.1.15,2013-03-02 14:00:00,
2013-03-02 10:10:00,33.7,32.9,29.50,NW,312,2.0,22.0,97,0.05,,,0.06,Wunderground v.1.15,2013-03-02 14:10:00,
2013-03-02 10:20:00,33.8,33.0,29.51,NNW,336,2.0,2.0,97,0.05,,,0.07,Wunderground v.1.15,2013-03-02 14:20:00,
2013-03-02 10:30:00,33.8,33.0,29.51,WNW,297,2.0,2.0,97,0.04,,,0.08,Wunderground v.1.15,2013-03-02 14:30:00,
2013-03-02 10:40:00,34.0,33.2,29.51,WNW,285,3.0,22.0,97,0.04,,,0.08,Wunderground v.1.15,2013-03-02 14:40:00,
2013-03-02 10:50:00,34.1,33.3,29.51,NNW,338,3.0,22.0,97,0.04,,,0.09,Wunderground v.1.15,2013-03-02 14:50:00,
2013-03-02 11:00:00,34.0,33.0,29.51,North,358,3.0,22.0,96,0.04,,,0.09,Wunderground v.1.15,2013-03-02 15:00:00,
2013-03-02 11:10:00,33.9,32.9,29.51,North,8,2.0,2.0,96,0.04,,,0.09,Wunderground v.1.15,2013-03-02 15:10:00,
2013-03-02 11:20:00,34.0,33.2,29.52,West,272,2.0,2.0,97,0.00,,,0.10,Wunderground v.1.15,2013-03-02 15:20:00,
2013-03-02 11:30:00,33.9,32.9,29.52,NW,319,2.0,2.0,96,0.00,,,0.10,Wunderground v.1.15,2013-03-02 15:30:00,
2013-03-02 11:40:00,33.9,32.9,29.52,WNW,298,1.0,1.0,96,0.00,,,0.10,Wunderground v.1.15,2013-03-02 15:40:00,
2013-03-02 11:50:00,33.8,32.8,29.52,NNW,334,2.0,22.0,96,0.00,,,0.11,Wunderground v.1.15,2013-03-02 15:50:00,
2013-03-02 12:00:00,33.9,33.1,29.52,NNW,333,2.0,2.0,97,0.00,,,0.11,Wunderground v.1.15,2013-03-02 16:00:00,
2013-03-02 12:10:00,33.8,32.8,29.52,NNW,345,2.0,2.0,96,0.00,,,0.11,Wunderground v.1.15,2013-03-02 16:10:00,
2013-03-02 12:20:00,33.7,32.7,29.52,NW,323,2.0,22.0,96,0.00,,,0.12,Wunderground v.1.15,2013-03-02 16:20:00,
2013-03-02 12:30:00,33.7,32.7,29.51,NNW,347,3.0,22.0,96,0.00,,,0.12,Wunderground v.1.15,2013-03-02 16:30:00,
2013-03-02 12:40:00,33.8,32.8,29.51,NNW,333,3.0,3.0,96,0.00,,,0.12,Wunderground v.1.15,2013-03-02 16:40:00,
2013-03-02 12:50:00,33.9,32.9,29.51,NW,323,2.0,2.0,96,0.00,,,0.12,Wunderground v.1.15,2013-03-02 16:50:00,
2013-03-02 13:00:00,33.7,32.7,29.51,North,358,3.0,3.0,96,0.00,,,0.12,Wunderground v.1.15,2013-03-02 17:00:00,
2013-03-02 13:10:00,33.6,32.8,29.51,NNE,15,3.0,22.0,97,0.00,,,0.12,Wunderground v.1.15,2013-03-02 17:10:00,
2013-03-02 13:20:00,33.6,32.8,29.51,NNW,338,3.0,3.0,97,0.00,,,0.13,Wunderground v.1.15,2013-03-02 17:20:00,
2013-03-02 13:30:00,33.7,32.9,29.51,NW,322,3.0,3.0,97,0.00,,,0.13,Wunderground v.1.15,2013-03-02 17:30:00,
2013-03-02 13:40:00,33.7,32.7,29.52,NW,315,3.0,3.0,96,0.00,,,0.13,Wunderground v.1.15,2013-03-02 17:40:00,
2013-03-02 13:50:00,33.6,32.6,29.52,WNW,303,3.0,3.0,96,0.00,,,0.13,Wunderground v.1.15,2013-03-02 17:50:00,
2013-03-02 14:00:00,33.5,32.5,29.52,NW,321,3.0,3.0,96,0.00,,,0.13,Wunderground v.1.15,2013-03-02 18:00:00,
2013-03-02 14:10:00,33.5,32.5,29.53,NW,312,3.0,22.0,96,0.00,,,0.13,Wunderground v.1.15,2013-03-02 18:10:00,
2013-03-02 14:20:00,33.5,32.5,29.52,NW,316,3.0,22.0,96,0.00,,,0.13,Wunderground v.1.15,2013-03-02 18:20:00,
2013-03-02 14:30:00,33.3,32.3,29.52,NW,319,3.0,22.0,96,0.00,,,0.13,Wunderground v.1.15,2013-03-02 18:30:00,
2013-03-02 14:40:00,33.2,32.2,29.53,NW,321,3.0,3.0,96,0.00,,,0.13,Wunderground v.1.15,2013-03-02 18:40:00,
2013-03-02 14:50:00,33.1,32.3,29.53,NNW,335,4.0,22.0,97,0.00,,,0.13,Wunderground v.1.15,2013-03-02 18:50:00,
2013-03-02 15:00:00,33.1,32.3,29.54,NW,312,4.0,22.0,97,0.00,,,0.13,Wunderground v.1.15,2013-03-02 19:00:00,
2013-03-02 15:10:00,33.0,32.2,29.54,North,11,4.0,22.0,97,0.00,,,0.13,Wunderground v.1.15,2013-03-02 19:10:00,
2013-03-02 15:20:00,33.0,32.2,29.54,NW,326,3.0,22.0,97,0.00,,,0.13,Wunderground v.1.15,2013-03-02 19:20:00,
2013-03-02 15:30:00,32.9,32.1,29.55,North,8,3.0,3.0,97,0.00,,,0.13,Wunderground v.1.15,2013-03-02 19:30:00,
2013-03-02 15:40:00,32.8,32.0,29.55,NNW,333,4.0,4.0,97,0.00,,,0.13,Wunderground v.1.15,2013-03-02 19:40:00,
2013-03-02 15:50:00,32.8,32.0,29.55,WNW,297,3.0,22.0,97,0.00,,,0.13,Wunderground v.1.15,2013-03-02 19:50:00,
2013-03-02 16:00:00,32.7,31.9,29.55,NNW,327,4.0,4.0,97,0.00,,,0.13,Wunderground v.1.15,2013-03-02 20:00:00,
2013-03-02 16:10:00,32.7,31.9,29.56,NNE,12,4.0,22.0,97,0.00,,,0.13,Wunderground v.1.15,2013-03-02 20:10:00,
2013-03-02 16:20:00,32.7,31.9,29.56,NNW,342,4.0,4.0,97,0.00,,,0.13,Wunderground v.1.15,2013-03-02 20:20:00,
2013-03-02 16:30:00,32.7,31.9,29.56,North,4,3.0,22.0,97,0.00,,,0.13,Wunderground v.1.15,2013-03-02 20:30:00,
2013-03-02 16:40:00,32.7,31.9,29.56,NNW,333,2.0,22.0,97,0.00,,,0.13,Wunderground v.1.15,2013-03-02 20:40:00,
2013-03-02 16:50:00,32.6,31.8,29.57,NNW,339,2.0,2.0,97,0.00,,,0.13,Wunderground v.1.15,2013-03-02 20:50:00,
2013-03-02 17:00:00,32.5,31.7,29.57,NW,323,2.0,2.0,97,0.00,,,0.13,Wunderground v.1.15,2013-03-02 21:00:00,
2013-03-02 17:10:00,32.5,31.7,29.57,NW,316,2.0,22.0,97,0.00,,,0.13,Wunderground v.1.15,2013-03-02 21:10:00,
2013-03-02 17:20:00,32.5,31.7,29.57,NNW,347,3.0,3.0,97,0.00,,,0.13,Wunderground v.1.15,2013-03-02 21:20:00,
2013-03-02 17:30:00,32.4,31.6,29.58,NW,323,3.0,22.0,97,0.00,,,0.13,Wunderground v.1.15,2013-03-02 21:30:00,
2013-03-02 17:40:00,32.3,31.5,29.58,NNW,328,5.0,5.0,97,0.00,,,0.13,Wunderground v.1.15,2013-03-02 21:40:00,
2013-03-02 17:50:00,32.1,31.3,29.58,North,349,3.0,22.0,97,0.00,,,0.13,Wunderground v.1.15,2013-03-02 21:50:00,
2013-03-02 18:00:00,32.1,31.3,29.59,North,6,3.0,22.0,97,0.00,,,0.13,Wunderground v.1.15,2013-03-02 22:00:00,
2013-03-02 18:10:00,32.0,31.2,29.59,NW,318,2.0,22.0,97,0.00,,,0.13,Wunderground v.1.15,2013-03-02 22:10:00,
2013-03-02 18:20:00,32.0,31.2,29.59,North,9,3.0,22.0,97,0.00,,,0.13,Wunderground v.1.15,2013-03-02 22:20:00,
2013-03-02 18:30:00,32.0,31.2,29.59,North,357,3.0,22.0,97,0.00,,,0.13,Wunderground v.1.15,2013-03-02 22:30:00,
2013-03-02 18:40:00,32.0,31.2,29.60,NNW,337,3.0,3.0,97,0.00,,,0.13,Wunderground v.1.15,2013-03-02 22:40:00,
2013-03-02 18:50:00,32.0,31.2,29.60,NNW,333,3.0,22.0,97,0.00,,,0.13,Wunderground v.1.15,2013-03-02 22:50:00,
2013-03-02 19:00:00,32.0,31.2,29.60,NNW,335,2.0,22.0,97,0.00,,,0.13,Wunderground v.1.15,2013-03-02 23:00:00,
2013-03-02 19:10:00,32.0,31.2,29.61,NW,306,2.0,2.0,97,0.00,,,0.13,Wunderground v.1.15,2013-03-02 23:10:00,
2013-03-02 19:20:00,32.0,31.2,29.61,NNW,343,1.0,22.0,97,0.00,,,0.13,Wunderground v.1.15,2013-03-02 23:20:00,
2013-03-02 19:30:00,31.9,31.1,29.61,NNW,335,1.0,22.0,97,0.00,,,0.13,Wunderground v.1.15,2013-03-02 23:30:00,
2013-03-02 19:40:00,31.9,31.1,29.60,WNW,303,2.0,2.0,97,0.00,,,0.13,Wunderground v.1.15,2013-03-02 23:40:00,
2013-03-02 19:50:00,31.8,31.0,29.61,NNW,338,1.0,1.0,97,0.00,,,0.13,Wunderground v.1.15,2013-03-02 23:50:00,
2013-03-02 20:00:00,31.8,31.0,29.61,WNW,301,1.0,1.0,97,0.00,,,0.13,Wunderground v.1.15,2013-03-03 00:00:00,
2013-03-02 20:10:00,31.8,31.0,29.61,NNE,15,1.0,1.0,97,0.00,,,0.13,Wunderground v.1.15,2013-03-03 00:10:00,
2013-03-02 20:20:00,31.9,31.1,29.61,WNW,292,0.0,22.0,97,0.00,,,0.13,Wunderground v.1.15,2013-03-03 00:20:00,
2013-03-02 20:30:00,31.9,31.1,29.61,NW,309,0.0,22.0,97,0.00,,,0.13,Wunderground v.1.15,2013-03-03 00:30:00,
2013-03-02 20:40:00,31.9,31.1,29.62,NW,314,1.0,1.0,97,0.00,,,0.13,Wunderground v.1.15,2013-03-03 00:40:00,
2013-03-02 20:50:00,31.8,31.0,29.62,North,10,0.0,22.0,97,0.00,,,0.13,Wunderground v.1.15,2013-03-03 00:50:00,
2013-03-02 21:00:00,31.8,31.0,29.62,NNE,30,1.0,1.0,97,0.00,,,0.13,Wunderground v.1.15,2013-03-03 01:00:00,
2013-03-02 21:10:00,31.7,30.9,29.61,NW,316,0.0,22.0,97,0.00,,,0.13,Wunderground v.1.15,2013-03-03 01:10:00,
2013-03-02 21:20:00,31.6,30.8,29.61,NW,326,1.0,1.0,97,0.00,,,0.13,Wunderground v.1.15,2013-03-03 01:20:00,
2013-03-02 21:30:00,31.6,30.8,29.61,North,356,0.0,22.0,97,0.00,,,0.13,Wunderground v.1.15,2013-03-03 01:30:00,
2013-03-02 21:40:00,31.6,30.8,29.61,NNW,327,1.0,22.0,97,0.00,,,0.13,Wunderground v.1.15,2013-03-03 01:40:00,
2013-03-02 21:50:00,31.6,31.1,29.62,NW,311,0.0,22.0,98,0.00,,,0.13,Wunderground v.1.15,2013-03-03 01:50:00,
2013-03-02 22:00:00,31.6,31.1,29.62,WNW,295,1.0,1.0,98,0.00,,,0.13,Wunderground v.1.15,2013-03-03 02:00:00,
2013-03-02 22:10:00,31.5,31.0,29.61,North,353,0.0,22.0,98,0.00,,,0.13,Wunderground v.1.15,2013-03-03 02:10:00,
2013-03-02 22:20:00,31.5,31.0,29.62,NW,304,0.0,22.0,98,0.00,,,0.13,Wunderground v.1.15,2013-03-03 02:20:00,
2013-03-02 22:30:00,31.5,31.0,29.61,NW,316,0.0,22.0,98,0.00,,,0.13,Wunderground v.1.15,2013-03-03 02:30:00,
2013-03-02 22:40:00,31.5,31.0,29.61,WNW,300,0.0,22.0,98,0.00,,,0.13,Wunderground v.1.15,2013-03-03 02:40:00,
2013-03-02 22:50:00,31.5,31.0,29.61,WNW,301,0.0,22.0,98,0.00,,,0.13,Wunderground v.1.15,2013-03-03 02:50:00,
2013-03-02 23:00:00,31.5,31.0,29.61,WNW,290,0.0,22.0,98,0.00,,,0.13,Wunderground v.1.15,2013-03-03 03:00:00,
2013-03-02 23:10:00,31.4,30.9,29.60,WNW,293,0.0,22.0,98,0.00,,,0.13,Wunderground v.1.15,2013-03-03 03:10:00,
2013-03-02 23:20:00,31.4,30.9,29.60,NW,307,0.0,22.0,98,0.00,,,0.13,Wunderground v.1.15,2013-03-03 03:20:00,
2013-03-02 23:30:00,31.5,31.0,29.60,NW,304,0.0,22.0,98,0.00,,,0.13,Wunderground v.1.15,2013-03-03 03:30:00,
2013-03-02 23:40:00,31.4,30.9,29.60,NW,314,0.0,22.0,98,0.00,,,0.13,Wunderground v.1.15,2013-03-03 03:40:00,
2013-03-02 23:50:00,31.4,30.9,29.60,WNW,302,0.0,22.0,98,0.00,,,0.13,Wunderground v.1.15,2013-03-03 03:50:00,